Location: Key Biscayne
(25.6930°N, 80.1630°W)
Time: 17:28:30
(UTC-04:00)

Vanguard 1 - Visible Passes

Search period start: 19 April 2018 00:00
Search period end: 29 April 2018 00:00
Orbit: 650 x 3833 km, 34.2° (Epoch: 18 April)

Date Brightness Start Highest point End Pass type
(mag) Time Alt. Az. Time Alt. Az. Time Alt. Az.
19 Apr 12.7 02:11:58 15° ENE 02:11:58 15° ENE 02:13:36 10° ENE visible
19 Apr 11.3 04:24:41 35° NW 04:28:14 59° NNE 04:41:23 10° E visible
20 Apr 12.4 02:31:54 22° ENE 02:31:54 22° ENE 02:35:21 10° ENE visible
20 Apr 11.2 04:44:38 27° NW 04:49:28 69° NNE 05:03:34 10° ESE visible
21 Apr 12.0 02:51:53 29° ENE 02:51:53 29° ENE 02:57:17 10° ENE visible
21 Apr 11.2 05:04:36 20° WNW 05:10:40 83° NNE 05:25:34 10° ESE visible
22 Apr 11.5 03:11:56 40° NE 03:11:56 40° NE 03:19:19 10° E visible
22 Apr 11.2 05:24:39 14° WNW 05:31:52 81° SSW 05:47:18 10° ESE visible
22 Apr 11.3 20:25:52 10° S 20:29:02 14° SSE 20:31:03 12° SE visible
23 Apr 11.0 03:32:02 53° NE 03:32:02 53° NE 03:41:23 10° E visible
23 Apr 11.4 05:44:54 10° WNW 05:53:06 65° SSW 06:08:42 10° SE visible
23 Apr 10.7 20:45:13 10° SSW 20:50:10 23° SSE 20:51:35 21° SE visible
24 Apr 10.6 03:52:14 68° NNE 03:52:21 68° NNE 04:03:22 10° ESE visible
24 Apr 11.7 06:06:03 10° WNW 06:14:25 50° SSW 06:29:43 10° SE visible
24 Apr 10.0 21:05:28 10° SW 21:11:14 37° SSE 21:12:07 34° SE visible
25 Apr 10.4 04:12:29 71° NW 04:13:27 85° NNE 04:25:10 10° ESE visible
25 Apr 9.4 21:26:12 10° SW 21:32:13 59° SSE 21:32:37 57° SE visible
26 Apr 12.8 02:20:05 11° E 02:20:05 11° E 02:20:28 10° E visible
26 Apr 10.5 04:32:51 57° W 04:34:33 75° SSW 04:46:43 10° ESE visible
26 Apr 9.3 21:47:15 10° WSW 21:53:04 86° W 21:53:04 86° W visible
27 Apr 12.5 02:40:30 16° E 02:40:30 16° E 02:42:19 10° E visible
27 Apr 10.8 04:53:16 42° WSW 04:55:42 57° SSW 05:07:56 10° SE visible
27 Apr 9.9 22:08:34 10° WSW 22:13:29 55° WNW 22:13:29 55° WNW visible
28 Apr 12.2 03:00:59 21° E 03:00:59 21° E 03:04:05 10° ESE visible
28 Apr 11.2 05:13:45 30° WSW 05:16:58 42° SSW 05:28:46 10° SE visible
28 Apr 10.4 20:06:58 10° SW 20:14:49 47° SSE 20:19:45 10° E visible
28 Apr 10.8 22:30:04 10° W 22:33:50 35° WNW 22:33:50 35° WNW visible
